owner,sensor,date,latitude,longitude,vertical_datum,wind_speed,wind_to_direction,wind_speed_of_gust,qcFlag 
ADCP,ioos:station:wmo:42395:2,2016-11-01T00:00:00Z,26.4040,-90.7920,3.0,7.9,76.0,10.1, 
ADCP,ioos:station:wmo:42395:2,2016-11-01T00:20:00Z,26.4040,-90.7920,3.0,8.3,79.0,10.6, 
ADCP,ioos:station:wmo:42395:2,2016-11-01T00:40:00Z,26.4040,-90.7920,3.0,8.5,79.0,10.7, 
ADCP,ioos:station:wmo:42395:2,2016-11-01T01:00:00Z,26.4040,-90.7920,3.0,8.3,81.0,10.1, 
ADCP,ioos:station:wmo:42395:2,2016-11-01T01:20:00Z,26.4040,-90.7920,3.0,8.4,74.0,10.3, 
ADCP,ioos:station:wmo:42395:2,2016-11-01T01:40:00Z,26.4040,-90.7920,3.0,8.7,76.0,10.5, 
ADCP,ioos:station:wmo:42395:2,2016-11-01T02:00:00Z,26.4040,-90.7920,3.0,9.6,79.0,12.1, 
ADCP,ioos:station:wmo:42395:2,2016-11-01T02:20:00Z,26.4040,-90.7920,3.0,9.2,81.0,10.9, 
ADCP,ioos:station:wmo:42395:2,2016-11-01T02:40:00Z,26.4040,-90.7920,3.0,8.7,83.0,10.9, 
ADCP,ioos:station:wmo:42395:2,2016-11-01T03:00:00Z,26.4040,-90.7920,3.0,8.6,86.0,11.2, 
ADCP,ioos:station:wmo:42395:2,2016-11-01T03:20:00Z,26.4040,-90.7920,3.0,9.0,86.0,11.5, 
ADCP,ioos:station:wmo:42395:2,2016-11-01T03:40:00Z,26.4040,-90.7920,3.0,9.3,88.0,11.3, 
ADCP,ioos:station:wmo:42395:2,2016-11-01T04:00:00Z,26.4040,-90.7920,3.0,9.0,82.0,11.5, 
ADCP,ioos:station:wmo:42395:2,2016-11-01T04:20:00Z,26.4040,-90.7920,3.0,9.5,89.0,12.1, 
ADCP,ioos:station:wmo:42395:2,2016-11-01T04:40:00Z,26.4040,-90.7920,3.0,9.6,82.0,12.2, 
ADCP,ioos:station:wmo:42395:2,2016-11-01T05:00:00Z,26.4040,-90.7920,3.0,9.6,84.0,11.9, 
ADCP,ioos:station:wmo:42395:2,2016-11-01T05:20:00Z,26.4040,-90.7920,3.0,8.7,88.0,10.7, 
ADCP,ioos:station:wmo:42395:2,2016-11-01T05:40:00Z,26.4040,-90.7920,3.0,9.0,89.0,11.6, 
ADCP,ioos:station:wmo:42395:2,2016-11-01T06:00:00Z,26.4040,-90.7920,3.0,8.6,88.0,11.2, 
ADCP,ioos:station:wmo:42395:2,2016-11-01T06:20:00Z,26.4040,-90.7920,3.0,9.3,86.0,11.8, 
ADCP,ioos:station:wmo:42395:2,2016-11-01T06:40:00Z,26.4040,-90.7920,3.0,9.1,84.0,11.2, 
ADCP,ioos:station:wmo:42395:2,2016-11-01T07:00:00Z,26.4040,-90.7920,3.0,9.0,86.0,11.3, 
ADCP,ioos:station:wmo:42395:2,2016-11-01T07:20:00Z,26.4040,-90.7920,3.0,8.7,91.0,11.3, 
ADCP,ioos:station:wmo:42395:2,2016-11-01T07:40:00Z,26.4040,-90.7920,3.0,8.8,91.0,11.4, 
ADCP,ioos:station:wmo:42395:2,2016-11-01T08:00:00Z,26.4040,-90.7920,3.0,8.3,93.0,10.2, 
ADCP,ioos:station:wmo:42395:2,2016-11-01T08:20:00Z,26.4040,-90.7920,3.0,7.5,91.0,10.2, 
ADCP,ioos:station:wmo:42395:2,2016-11-01T08:40:00Z,26.4040,-90.7920,3.0,7.7,90.0,10.1, 
ADCP,ioos:station:wmo:42395:2,2016-11-01T09:00:00Z,26.4040,-90.7920,3.0,7.2,100.0,9.3, 
ADCP,ioos:station:wmo:42395:2,2016-11-01T09:20:00Z,26.4040,-90.7920,3.0,7.6,92.0,10.2, 
ADCP,ioos:station:wmo:42395:2,2016-11-01T09:40:00Z,26.4040,-90.7920,3.0,7.3,94.0,9.1, 
ADCP,ioos:station:wmo:42395:2,2016-11-01T10:00:00Z,26.4040,-90.7920,3.0,7.0,95.0,9.1, 
ADCP,ioos:station:wmo:42395:2,2016-11-01T10:40:00Z,26.4040,-90.7920,3.0,7.0,94.0,8.8, 
ADCP,ioos:station:wmo:42395:2,2016-11-01T11:00:00Z,26.4040,-90.7920,3.0,6.4,100.0,8.0, 
ADCP,ioos:station:wmo:42395:2,2016-11-01T11:20:00Z,26.4040,-90.7920,3.0,6.4,100.0,8.7, 
ADCP,ioos:station:wmo:42395:2,2016-11-01T11:40:00Z,26.4040,-90.7920,3.0,6.7,100.0,9.1, 
ADCP,ioos:station:wmo:42395:2,2016-11-01T12:00:00Z,26.4040,-90.7920,3.0,7.1,91.0,8.7, 
ADCP,ioos:station:wmo:42395:2,2016-11-01T12:20:00Z,26.4040,-90.7920,3.0,6.4,89.0,8.8, 
ADCP,ioos:station:wmo:42395:2,2016-11-01T12:40:00Z,26.4040,-90.7920,3.0,6.5,95.0,8.4, 
ADCP,ioos:station:wmo:42395:2,2016-11-01T13:00:00Z,26.4040,-90.7920,3.0,7.0,91.0,8.7, 
ADCP,ioos:station:wmo:42395:2,2016-11-01T13:20:00Z,26.4040,-90.7920,3.0,7.1,89.0,9.1, 
ADCP,ioos:station:wmo:42395:2,2016-11-01T13:40:00Z,26.4040,-90.7920,3.0,6.5,-9999.0,8.7, 
ADCP,ioos:station:wmo:42395:2,2016-11-01T14:00:00Z,26.4040,-90.7920,3.0,6.6,82.0,8.4, 
ADCP,ioos:station:wmo:42395:2,2016-11-01T14:20:00Z,26.4040,-90.7920,3.0,6.7,86.0,8.7, 
ADCP,ioos:station:wmo:42395:2,2016-11-01T14:40:00Z,26.4040,-90.7920,3.0,7.2,82.0,9.3, 
ADCP,ioos:station:wmo:42395:2,2016-11-01T15:00:00Z,26.4040,-90.7920,3.0,6.9,80.0,9.0, 
ADCP,ioos:station:wmo:42395:2,2016-11-01T15:20:00Z,26.4040,-90.7920,3.0,6.3,84.0,8.6, 
ADCP,ioos:station:wmo:42395:2,2016-11-01T15:40:00Z,26.4040,-90.7920,3.0,6.9,84.0,8.4, 
ADCP,ioos:station:wmo:42395:2,2016-11-01T16:00:00Z,26.4040,-90.7920,3.0,6.4,83.0,8.3, 
ADCP,ioos:station:wmo:42395:2,2016-11-01T16:20:00Z,26.4040,-90.7920,3.0,6.5,89.0,8.3, 
ADCP,ioos:station:wmo:42395:2,2016-11-01T16:40:00Z,26.4040,-90.7920,3.0,6.5,78.0,8.7, 
ADCP,ioos:station:wmo:42395:2,2016-11-01T17:00:00Z,26.4040,-90.7920,3.0,6.7,81.0,9.1, 
ADCP,ioos:station:wmo:42395:2,2016-11-01T17:20:00Z,26.4040,-90.7920,3.0,7.2,83.0,9.4, 
ADCP,ioos:station:wmo:42395:2,2016-11-01T17:40:00Z,26.4040,-90.7920,3.0,7.4,85.0,9.6, 
ADCP,ioos:station:wmo:42395:2,2016-11-01T18:00:00Z,26.4040,-90.7920,3.0,7.5,86.0,9.4, 
ADCP,ioos:station:wmo:42395:2,2016-11-01T18:20:00Z,26.4040,-90.7920,3.0,8.3,85.0,10.5, 
ADCP,ioos:station:wmo:42395:2,2016-11-01T18:40:00Z,26.4040,-90.7920,3.0,8.7,84.0,10.7, 
ADCP,ioos:station:wmo:42395:2,2016-11-01T19:00:00Z,26.4040,-90.7920,3.0,8.5,84.0,10.5, 
ADCP,ioos:station:wmo:42395:2,2016-11-01T19:20:00Z,26.4040,-90.7920,3.0,8.1,89.0,10.3, 
ADCP,ioos:station:wmo:42395:2,2016-11-01T19:40:00Z,26.4040,-90.7920,3.0,8.3,91.0,11.2, 
ADCP,ioos:station:wmo:42395:2,2016-11-01T20:00:00Z,26.4040,-90.7920,3.0,8.7,85.0,11.2, 
ADCP,ioos:station:wmo:42395:2,2016-11-01T20:20:00Z,26.4040,-90.7920,3.0,8.8,91.0,10.8, 
ADCP,ioos:station:wmo:42395:2,2016-11-01T20:40:00Z,26.4040,-90.7920,3.0,9.0,96.0,11.2, 
ADCP,ioos:station:wmo:42395:2,2016-11-01T21:00:00Z,26.4040,-90.7920,3.0,9.1,90.0,11.4, 
ADCP,ioos:station:wmo:42395:2,2016-11-01T21:20:00Z,26.4040,-90.7920,3.0,9.3,95.0,11.3, 
ADCP,ioos:station:wmo:42395:2,2016-11-01T21:40:00Z,26.4040,-90.7920,3.0,9.2,93.0,11.5, 
ADCP,ioos:station:wmo:42395:2,2016-11-01T22:00:00Z,26.4040,-90.7920,3.0,9.1,92.0,10.9, 
ADCP,ioos:station:wmo:42395:2,2016-11-01T22:20:00Z,26.4040,-90.7920,3.0,9.3,91.0,11.2, 
ADCP,ioos:station:wmo:42395:2,2016-11-01T22:40:00Z,26.4040,-90.7920,3.0,9.7,89.0,12.4, 
ADCP,ioos:station:wmo:42395:2,2016-11-01T23:00:00Z,26.4040,-90.7920,3.0,10.5,87.0,13.0, 
ADCP,ioos:station:wmo:42395:2,2016-11-01T23:20:00Z,26.4040,-90.7920,3.0,10.6,87.0,13.0, 
ADCP,ioos:station:wmo:42395:2,2016-11-01T23:40:00Z,26.4040,-90.7920,3.0,10.4,91.0,13.4, 
ADCP,ioos:station:wmo:42395:2,2016-11-02T00:00:00Z,26.4040,-90.7920,3.0,10.8,92.0,12.9, 
ADCP,ioos:station:wmo:42395:2,2016-11-02T00:20:00Z,26.4040,-90.7920,3.0,10.3,88.0,13.0, 
ADCP,ioos:station:wmo:42395:2,2016-11-02T00:40:00Z,26.4040,-90.7920,3.0,10.7,88.0,13.3, 
ADCP,ioos:station:wmo:42395:2,2016-11-02T01:00:00Z,26.4040,-90.7920,3.0,10.4,91.0,12.7, 
ADCP,ioos:station:wmo:42395:2,2016-11-02T01:20:00Z,26.4040,-90.7920,3.0,10.1,87.0,12.6, 
ADCP,ioos:station:wmo:42395:2,2016-11-02T01:40:00Z,26.4040,-90.7920,3.0,10.0,86.0,12.8, 
ADCP,ioos:station:wmo:42395:2,2016-11-02T02:00:00Z,26.4040,-90.7920,3.0,10.3,88.0,12.7, 
ADCP,ioos:station:wmo:42395:2,2016-11-02T02:20:00Z,26.4040,-90.7920,3.0,10.2,90.0,13.3, 
ADCP,ioos:station:wmo:42395:2,2016-11-02T02:40:00Z,26.4040,-90.7920,3.0,10.1,89.0,12.7, 
ADCP,ioos:station:wmo:42395:2,2016-11-02T03:00:00Z,26.4040,-90.7920,3.0,9.7,91.0,12.5, 
ADCP,ioos:station:wmo:42395:2,2016-11-02T03:20:00Z,26.4040,-90.7920,3.0,9.8,90.0,12.6, 
ADCP,ioos:station:wmo:42395:2,2016-11-02T03:40:00Z,26.4040,-90.7920,3.0,9.8,87.0,12.9, 
ADCP,ioos:station:wmo:42395:2,2016-11-02T04:00:00Z,26.4040,-90.7920,3.0,10.4,90.0,12.2, 
ADCP,ioos:station:wmo:42395:2,2016-11-02T04:20:00Z,26.4040,-90.7920,3.0,10.0,90.0,12.7, 
ADCP,ioos:station:wmo:42395:2,2016-11-02T04:40:00Z,26.4040,-90.7920,3.0,9.1,83.0,11.6, 
ADCP,ioos:station:wmo:42395:2,2016-11-02T05:00:00Z,26.4040,-90.7920,3.0,9.5,84.0,11.9, 
ADCP,ioos:station:wmo:42395:2,2016-11-02T05:20:00Z,26.4040,-90.7920,3.0,9.6,84.0,11.8, 
ADCP,ioos:station:wmo:42395:2,2016-11-02T05:40:00Z,26.4040,-90.7920,3.0,9.4,86.0,12.3, 
ADCP,ioos:station:wmo:42395:2,2016-11-02T06:00:00Z,26.4040,-90.7920,3.0,8.8,82.0,11.5, 
ADCP,ioos:station:wmo:42395:2,2016-11-02T06:20:00Z,26.4040,-90.7920,3.0,9.6,90.0,11.8, 
ADCP,ioos:station:wmo:42395:2,2016-11-02T06:40:00Z,26.4040,-90.7920,3.0,9.1,75.0,11.3, 
ADCP,ioos:station:wmo:42395:2,2016-11-02T07:00:00Z,26.4040,-90.7920,3.0,8.2,72.0,11.5, 
ADCP,ioos:station:wmo:42395:2,2016-11-02T07:20:00Z,26.4040,-90.7920,3.0,9.7,86.0,12.1, 
ADCP,ioos:station:wmo:42395:2,2016-11-02T07:40:00Z,26.4040,-90.7920,3.0,9.7,90.0,12.4, 
ADCP,ioos:station:wmo:42395:2,2016-11-02T08:00:00Z,26.4040,-90.7920,3.0,9.4,85.0,11.4, 
ADCP,ioos:station:wmo:42395:2,2016-11-02T08:20:00Z,26.4040,-90.7920,3.0,9.5,81.0,11.7, 
ADCP,ioos:station:wmo:42395:2,2016-11-02T08:40:00Z,26.4040,-90.7920,3.0,9.6,86.0,11.9, 
ADCP,ioos:station:wmo:42395:2,2016-11-02T09:00:00Z,26.4040,-90.7920,3.0,10.0,89.0,12.4, 
ADCP,ioos:station:wmo:42395:2,2016-11-02T09:20:00Z,26.4040,-90.7920,3.0,10.0,87.0,12.9, 
ADCP,ioos:station:wmo:42395:2,2016-11-02T09:40:00Z,26.4040,-90.7920,3.0,10.2,91.0,12.4, 
ADCP,ioos:station:wmo:42395:2,2016-11-02T10:00:00Z,26.4040,-90.7920,3.0,10.4,93.0,12.9, 
ADCP,ioos:station:wmo:42395:2,2016-11-02T10:20:00Z,26.4040,-90.7920,3.0,10.2,97.0,12.3, 
ADCP,ioos:station:wmo:42395:2,2016-11-02T10:40:00Z,26.4040,-90.7920,3.0,10.5,92.0,13.4, 
ADCP,ioos:station:wmo:42395:2,2016-11-02T11:00:00Z,26.4040,-90.7920,3.0,10.4,94.0,12.9, 
ADCP,ioos:station:wmo:42395:2,2016-11-02T11:20:00Z,26.4040,-90.7920,3.0,10.1,89.0,12.3, 
ADCP,ioos:station:wmo:42395:2,2016-11-02T11:40:00Z,26.4040,-90.7920,3.0,10.6,91.0,12.8, 
ADCP,ioos:station:wmo:42395:2,2016-11-02T12:00:00Z,26.4040,-90.7920,3.0,10.9,91.0,13.8, 
ADCP,ioos:station:wmo:42395:2,2016-11-02T12:20:00Z,26.4040,-90.7920,3.0,10.8,93.0,13.9, 
ADCP,ioos:station:wmo:42395:2,2016-11-02T12:40:00Z,26.4040,-90.7920,3.0,11.1,93.0,13.3, 
ADCP,ioos:station:wmo:42395:2,2016-11-02T13:00:00Z,26.4040,-90.7920,3.0,11.4,97.0,14.2, 
ADCP,ioos:station:wmo:42395:2,2016-11-02T13:20:00Z,26.4040,-90.7920,3.0,11.3,94.0,15.0, 
ADCP,ioos:station:wmo:42395:2,2016-11-02T13:40:00Z,26.4040,-90.7920,3.0,11.3,95.0,14.0, 
ADCP,ioos:station:wmo:42395:2,2016-11-02T14:00:00Z,26.4040,-90.7920,3.0,11.3,96.0,13.8, 
ADCP,ioos:station:wmo:42395:2,2016-11-02T14:20:00Z,26.4040,-90.7920,3.0,11.4,98.0,14.4, 
ADCP,ioos:station:wmo:42395:2,2016-11-02T14:40:00Z,26.4040,-90.7920,3.0,11.4,96.0,14.4, 
ADCP,ioos:station:wmo:42395:2,2016-11-02T15:00:00Z,26.4040,-90.7920,3.0,12.4,96.0,15.3, 
ADCP,ioos:station:wmo:42395:2,2016-11-02T15:20:00Z,26.4040,-90.7920,3.0,12.2,101.0,15.3, 
ADCP,ioos:station:wmo:42395:2,2016-11-02T15:40:00Z,26.4040,-90.7920,3.0,12.1,105.0,14.7, 
ADCP,ioos:station:wmo:42395:2,2016-11-02T16:00:00Z,26.4040,-90.7920,3.0,11.6,105.0,14.2, 
ADCP,ioos:station:wmo:42395:2,2016-11-02T16:20:00Z,26.4040,-90.7920,3.0,10.8,112.0,13.6, 
ADCP,ioos:station:wmo:42395:2,2016-11-02T16:40:00Z,26.4040,-90.7920,3.0,10.3,106.0,12.8, 
ADCP,ioos:station:wmo:42395:2,2016-11-02T17:20:00Z,26.4040,-90.7920,3.0,10.1,105.0,12.3, 
ADCP,ioos:station:wmo:42395:2,2016-11-02T17:40:00Z,26.4040,-90.7920,3.0,10.1,101.0,13.0, 
ADCP,ioos:station:wmo:42395:2,2016-11-02T18:00:00Z,26.4040,-90.7920,3.0,9.5,98.0,12.1, 
ADCP,ioos:station:wmo:42395:2,2016-11-02T18:20:00Z,26.4040,-90.7920,3.0,10.1,96.0,12.7, 
ADCP,ioos:station:wmo:42395:2,2016-11-02T18:40:00Z,26.4040,-90.7920,3.0,9.8,101.0,12.2, 
ADCP,ioos:station:wmo:42395:2,2016-11-02T19:00:00Z,26.4040,-90.7920,3.0,9.0,105.0,11.5, 
ADCP,ioos:station:wmo:42395:2,2016-11-02T19:40:00Z,26.4040,-90.7920,3.0,9.1,96.0,11.5, 
ADCP,ioos:station:wmo:42395:2,2016-11-02T20:00:00Z,26.4040,-90.7920,3.0,8.7,92.0,10.8, 
ADCP,ioos:station:wmo:42395:2,2016-11-02T20:20:00Z,26.4040,-90.7920,3.0,9.1,87.0,11.9, 
ADCP,ioos:station:wmo:42395:2,2016-11-02T20:40:00Z,26.4040,-90.7920,3.0,9.2,84.0,11.4, 
ADCP,ioos:station:wmo:42395:2,2016-11-02T21:00:00Z,26.4040,-90.7920,3.0,9.4,86.0,11.5, 
ADCP,ioos:station:wmo:42395:2,2016-11-02T21:20:00Z,26.4040,-90.7920,3.0,9.3,78.0,11.2, 
ADCP,ioos:station:wmo:42395:2,2016-11-02T21:40:00Z,26.4040,-90.7920,3.0,9.5,75.0,12.1, 
ADCP,ioos:station:wmo:42395:2,2016-11-02T22:00:00Z,26.4040,-90.7920,3.0,9.6,79.0,12.3, 
ADCP,ioos:station:wmo:42395:2,2016-11-02T22:20:00Z,26.4040,-90.7920,3.0,9.6,75.0,11.8, 
ADCP,ioos:station:wmo:42395:2,2016-11-02T22:40:00Z,26.4040,-90.7920,3.0,9.5,80.0,11.9, 
ADCP,ioos:station:wmo:42395:2,2016-11-02T23:00:00Z,26.4040,-90.7920,3.0,9.1,77.0,11.1, 
ADCP,ioos:station:wmo:42395:2,2016-11-02T23:20:00Z,26.4040,-90.7920,3.0,8.6,80.0,10.6, 
ADCP,ioos:station:wmo:42395:2,2016-11-02T23:40:00Z,26.4040,-90.7920,3.0,8.5,77.0,10.5, 
ADCP,ioos:station:wmo:42395:2,2016-11-03T00:00:00Z,26.4040,-90.7920,3.0,9.0,84.0,11.1, 
ADCP,ioos:station:wmo:42395:2,2016-11-03T00:20:00Z,26.4040,-90.7920,3.0,8.8,85.0,10.9, 
ADCP,ioos:station:wmo:42395:2,2016-11-03T00:40:00Z,26.4040,-90.7920,3.0,8.5,94.0,12.1, 
ADCP,ioos:station:wmo:42395:2,2016-11-03T01:00:00Z,26.4040,-90.7920,3.0,9.0,90.0,11.6, 
ADCP,ioos:station:wmo:42395:2,2016-11-03T01:20:00Z,26.4040,-90.7920,3.0,9.1,86.0,11.3, 
ADCP,ioos:station:wmo:42395:2,2016-11-03T01:40:00Z,26.4040,-90.7920,3.0,9.3,94.0,11.8, 
ADCP,ioos:station:wmo:42395:2,2016-11-03T02:00:00Z,26.4040,-90.7920,3.0,9.6,86.0,11.9, 
ADCP,ioos:station:wmo:42395:2,2016-11-03T02:20:00Z,26.4040,-90.7920,3.0,9.3,89.0,12.1, 
ADCP,ioos:station:wmo:42395:2,2016-11-03T02:40:00Z,26.4040,-90.7920,3.0,10.2,86.0,12.3, 
ADCP,ioos:station:wmo:42395:2,2016-11-03T03:00:00Z,26.4040,-90.7920,3.0,9.8,84.0,12.5, 
ADCP,ioos:station:wmo:42395:2,2016-11-03T03:20:00Z,26.4040,-90.7920,3.0,10.0,89.0,12.6, 
ADCP,ioos:station:wmo:42395:2,2016-11-03T03:40:00Z,26.4040,-90.7920,3.0,9.6,91.0,12.4, 
ADCP,ioos:station:wmo:42395:2,2016-11-03T04:00:00Z,26.4040,-90.7920,3.0,9.6,93.0,12.5, 
ADCP,ioos:station:wmo:42395:2,2016-11-03T04:20:00Z,26.4040,-90.7920,3.0,9.3,92.0,11.5, 
ADCP,ioos:station:wmo:42395:2,2016-11-03T04:40:00Z,26.4040,-90.7920,3.0,10.5,94.0,13.4, 
ADCP,ioos:station:wmo:42395:2,2016-11-03T05:00:00Z,26.4040,-90.7920,3.0,9.7,94.0,12.4, 
ADCP,ioos:station:wmo:42395:2,2016-11-03T05:20:00Z,26.4040,-90.7920,3.0,10.2,96.0,13.3, 
ADCP,ioos:station:wmo:42395:2,2016-11-03T05:40:00Z,26.4040,-90.7920,3.0,9.1,101.0,11.3, 
ADCP,ioos:station:wmo:42395:2,2016-11-03T06:00:00Z,26.4040,-90.7920,3.0,9.4,87.0,11.9, 
ADCP,ioos:station:wmo:42395:2,2016-11-03T06:20:00Z,26.4040,-90.7920,3.0,8.3,106.0,10.3, 
ADCP,ioos:station:wmo:42395:2,2016-11-03T06:40:00Z,26.4040,-90.7920,3.0,8.2,101.0,10.6, 
ADCP,ioos:station:wmo:42395:2,2016-11-03T07:00:00Z,26.4040,-90.7920,3.0,9.2,86.0,12.2, 
ADCP,ioos:station:wmo:42395:2,2016-11-03T07:20:00Z,26.4040,-90.7920,3.0,8.0,89.0,9.7, 
ADCP,ioos:station:wmo:42395:2,2016-11-03T07:40:00Z,26.4040,-90.7920,3.0,8.0,84.0,10.5, 
ADCP,ioos:station:wmo:42395:2,2016-11-03T08:00:00Z,26.4040,-90.7920,3.0,8.4,88.0,10.9, 
ADCP,ioos:station:wmo:42395:2,2016-11-03T08:20:00Z,26.4040,-90.7920,3.0,8.2,88.0,10.1, 
ADCP,ioos:station:wmo:42395:2,2016-11-03T08:40:00Z,26.4040,-90.7920,3.0,8.1,94.0,10.4, 
ADCP,ioos:station:wmo:42395:2,2016-11-03T09:00:00Z,26.4040,-90.7920,3.0,8.5,91.0,11.2, 
ADCP,ioos:station:wmo:42395:2,2016-11-03T09:20:00Z,26.4040,-90.7920,3.0,7.9,96.0,10.0, 
ADCP,ioos:station:wmo:42395:2,2016-11-03T09:40:00Z,26.4040,-90.7920,3.0,7.6,96.0,10.4, 
ADCP,ioos:station:wmo:42395:2,2016-11-03T10:00:00Z,26.4040,-90.7920,3.0,7.5,96.0,10.1, 
ADCP,ioos:station:wmo:42395:2,2016-11-03T10:20:00Z,26.4040,-90.7920,3.0,8.3,91.0,10.7, 
ADCP,ioos:station:wmo:42395:2,2016-11-03T10:40:00Z,26.4040,-90.7920,3.0,7.9,95.0,10.0, 
ADCP,ioos:station:wmo:42395:2,2016-11-03T11:00:00Z,26.4040,-90.7920,3.0,8.8,103.0,11.1, 
ADCP,ioos:station:wmo:42395:2,2016-11-03T11:20:00Z,26.4040,-90.7920,3.0,9.1,99.0,11.4, 
ADCP,ioos:station:wmo:42395:2,2016-11-03T11:40:00Z,26.4040,-90.7920,3.0,9.3,101.0,11.5, 
ADCP,ioos:station:wmo:42395:2,2016-11-03T12:00:00Z,26.4040,-90.7920,3.0,9.6,95.0,11.9, 
ADCP,ioos:station:wmo:42395:2,2016-11-03T12:20:00Z,26.4040,-90.7920,3.0,8.3,96.0,10.8, 
ADCP,ioos:station:wmo:42395:2,2016-11-03T12:40:00Z,26.4040,-90.7920,3.0,8.1,94.0,10.7, 
ADCP,ioos:station:wmo:42395:2,2016-11-03T13:00:00Z,26.4040,-90.7920,3.0,8.0,97.0,10.1, 
ADCP,ioos:station:wmo:42395:2,2016-11-03T13:20:00Z,26.4040,-90.7920,3.0,7.6,91.0,10.0, 
ADCP,ioos:station:wmo:42395:2,2016-11-03T13:40:00Z,26.4040,-90.7920,3.0,7.2,90.0,9.2, 
ADCP,ioos:station:wmo:42395:2,2016-11-03T14:00:00Z,26.4040,-90.7920,3.0,7.7,91.0,9.7, 
ADCP,ioos:station:wmo:42395:2,2016-11-03T14:20:00Z,26.4040,-90.7920,3.0,6.9,90.0,8.7, 
ADCP,ioos:station:wmo:42395:2,2016-11-03T14:40:00Z,26.4040,-90.7920,3.0,7.5,92.0,9.6, 
ADCP,ioos:station:wmo:42395:2,2016-11-03T15:00:00Z,26.4040,-90.7920,3.0,7.4,88.0,9.7, 
ADCP,ioos:station:wmo:42395:2,2016-11-03T15:20:00Z,26.4040,-90.7920,3.0,6.9,88.0,9.5, 
ADCP,ioos:station:wmo:42395:2,2016-11-03T15:40:00Z,26.4040,-90.7920,3.0,6.9,83.0,8.7, 
ADCP,ioos:station:wmo:42395:2,2016-11-03T16:00:00Z,26.4040,-90.7920,3.0,6.7,84.0,8.8, 
ADCP,ioos:station:wmo:42395:2,2016-11-03T16:20:00Z,26.4040,-90.7920,3.0,7.5,86.0,9.3, 
ADCP,ioos:station:wmo:42395:2,2016-11-03T16:40:00Z,26.4040,-90.7920,3.0,7.1,89.0,9.0, 
ADCP,ioos:station:wmo:42395:2,2016-11-03T17:00:00Z,26.4040,-90.7920,3.0,6.7,89.0,8.6, 
ADCP,ioos:station:wmo:42395:2,2016-11-03T17:20:00Z,26.4040,-90.7920,3.0,6.6,82.0,8.6, 
ADCP,ioos:station:wmo:42395:2,2016-11-03T17:40:00Z,26.4040,-90.7920,3.0,6.3,79.0,8.1, 
ADCP,ioos:station:wmo:42395:2,2016-11-03T18:00:00Z,26.4040,-90.7920,3.0,6.6,81.0,9.0, 
ADCP,ioos:station:wmo:42395:2,2016-11-03T18:20:00Z,26.4040,-90.7920,3.0,6.9,75.0,8.6, 
ADCP,ioos:station:wmo:42395:2,2016-11-03T18:40:00Z,26.4040,-90.7920,3.0,6.6,75.0,8.3, 
ADCP,ioos:station:wmo:42395:2,2016-11-03T19:00:00Z,26.4040,-90.7920,3.0,6.4,72.0,8.3, 
ADCP,ioos:station:wmo:42395:2,2016-11-03T19:20:00Z,26.4040,-90.7920,3.0,6.5,79.0,8.3, 
ADCP,ioos:station:wmo:42395:2,2016-11-03T19:40:00Z,26.4040,-90.7920,3.0,6.2,75.0,7.7, 
ADCP,ioos:station:wmo:42395:2,2016-11-03T20:00:00Z,26.4040,-90.7920,3.0,6.6,72.0,8.3, 
ADCP,ioos:station:wmo:42395:2,2016-11-03T20:20:00Z,26.4040,-90.7920,3.0,6.6,74.0,8.1, 
ADCP,ioos:station:wmo:42395:2,2016-11-03T20:40:00Z,26.4040,-90.7920,3.0,6.6,71.0,8.5, 
ADCP,ioos:station:wmo:42395:2,2016-11-03T21:00:00Z,26.4040,-90.7920,3.0,6.6,72.0,8.4, 
ADCP,ioos:station:wmo:42395:2,2016-11-03T21:20:00Z,26.4040,-90.7920,3.0,6.9,70.0,9.0, 
ADCP,ioos:station:wmo:42395:2,2016-11-03T21:40:00Z,26.4040,-90.7920,3.0,6.5,70.0,8.3, 
ADCP,ioos:station:wmo:42395:2,2016-11-03T22:00:00Z,26.4040,-90.7920,3.0,6.7,78.0,8.8, 
ADCP,ioos:station:wmo:42395:2,2016-11-03T22:20:00Z,26.4040,-90.7920,3.0,6.7,71.0,8.2, 
ADCP,ioos:station:wmo:42395:2,2016-11-03T22:40:00Z,26.4040,-90.7920,3.0,6.7,72.0,8.6, 
ADCP,ioos:station:wmo:42395:2,2016-11-03T23:00:00Z,26.4040,-90.7920,3.0,7.3,70.0,9.3, 
ADCP,ioos:station:wmo:42395:2,2016-11-03T23:20:00Z,26.4040,-90.7920,3.0,6.7,80.0,8.8, 
ADCP,ioos:station:wmo:42395:2,2016-11-03T23:40:00Z,26.4040,-90.7920,3.0,7.1,77.0,8.5, 
ADCP,ioos:station:wmo:42395:2,2016-11-04T00:00:00Z,26.4040,-90.7920,3.0,6.6,76.0,8.4, 
ADCP,ioos:station:wmo:42395:2,2016-11-04T00:20:00Z,26.4040,-90.7920,3.0,6.6,72.0,8.5, 
ADCP,ioos:station:wmo:42395:2,2016-11-04T00:40:00Z,26.4040,-90.7920,3.0,6.5,74.0,8.2, 
ADCP,ioos:station:wmo:42395:2,2016-11-04T01:00:00Z,26.4040,-90.7920,3.0,7.0,70.0,9.2, 
ADCP,ioos:station:wmo:42395:2,2016-11-04T01:20:00Z,26.4040,-90.7920,3.0,6.1,81.0,7.6, 
ADCP,ioos:station:wmo:42395:2,2016-11-04T01:40:00Z,26.4040,-90.7920,3.0,5.9,75.0,7.7, 
ADCP,ioos:station:wmo:42395:2,2016-11-04T02:00:00Z,26.4040,-90.7920,3.0,6.1,70.0,8.1, 
ADCP,ioos:station:wmo:42395:2,2016-11-04T02:20:00Z,26.4040,-90.7920,3.0,5.3,53.0,6.9, 
ADCP,ioos:station:wmo:42395:2,2016-11-04T02:40:00Z,26.4040,-90.7920,3.0,4.2,82.0,6.0, 
ADCP,ioos:station:wmo:42395:2,2016-11-04T03:00:00Z,26.4040,-90.7920,3.0,7.1,86.0,9.3, 
ADCP,ioos:station:wmo:42395:2,2016-11-04T03:20:00Z,26.4040,-90.7920,3.0,7.7,85.0,9.7, 
ADCP,ioos:station:wmo:42395:2,2016-11-04T03:40:00Z,26.4040,-90.7920,3.0,8.2,70.0,9.7, 
ADCP,ioos:station:wmo:42395:2,2016-11-04T04:00:00Z,26.4040,-90.7920,3.0,7.5,79.0,9.6, 
ADCP,ioos:station:wmo:42395:2,2016-11-04T04:20:00Z,26.4040,-90.7920,3.0,7.7,80.0,9.6, 
ADCP,ioos:station:wmo:42395:2,2016-11-04T04:40:00Z,26.4040,-90.7920,3.0,7.7,79.0,9.4, 
ADCP,ioos:station:wmo:42395:2,2016-11-04T05:00:00Z,26.4040,-90.7920,3.0,7.5,84.0,9.1, 
ADCP,ioos:station:wmo:42395:2,2016-11-04T05:20:00Z,26.4040,-90.7920,3.0,7.9,82.0,9.5, 
ADCP,ioos:station:wmo:42395:2,2016-11-04T05:40:00Z,26.4040,-90.7920,3.0,7.5,77.0,9.6, 
ADCP,ioos:station:wmo:42395:2,2016-11-04T06:00:00Z,26.4040,-90.7920,3.0,7.5,84.0,9.1, 
ADCP,ioos:station:wmo:42395:2,2016-11-04T06:20:00Z,26.4040,-90.7920,3.0,8.0,77.0,10.4, 
ADCP,ioos:station:wmo:42395:2,2016-11-04T06:40:00Z,26.4040,-90.7920,3.0,7.9,80.0,10.0, 
ADCP,ioos:station:wmo:42395:2,2016-11-04T07:00:00Z,26.4040,-90.7920,3.0,8.0,77.0,9.7, 
ADCP,ioos:station:wmo:42395:2,2016-11-04T07:20:00Z,26.4040,-90.7920,3.0,7.5,86.0,10.2, 
ADCP,ioos:station:wmo:42395:2,2016-11-04T07:40:00Z,26.4040,-90.7920,3.0,7.3,77.0,9.7, 
ADCP,ioos:station:wmo:42395:2,2016-11-04T08:00:00Z,26.4040,-90.7920,3.0,7.2,84.0,8.8, 
ADCP,ioos:station:wmo:42395:2,2016-11-04T08:20:00Z,26.4040,-90.7920,3.0,7.0,80.0,8.5, 
ADCP,ioos:station:wmo:42395:2,2016-11-04T08:40:00Z,26.4040,-90.7920,3.0,6.6,79.0,8.4, 
ADCP,ioos:station:wmo:42395:2,2016-11-04T09:00:00Z,26.4040,-90.7920,3.0,6.3,83.0,8.2, 
ADCP,ioos:station:wmo:42395:2,2016-11-04T09:20:00Z,26.4040,-90.7920,3.0,6.5,89.0,8.2, 
ADCP,ioos:station:wmo:42395:2,2016-11-04T09:40:00Z,26.4040,-90.7920,3.0,6.2,88.0,7.6, 
ADCP,ioos:station:wmo:42395:2,2016-11-04T10:00:00Z,26.4040,-90.7920,3.0,6.3,88.0,7.7, 
ADCP,ioos:station:wmo:42395:2,2016-11-04T10:20:00Z,26.4040,-90.7920,3.0,6.0,85.0,7.5, 
ADCP,ioos:station:wmo:42395:2,2016-11-04T10:40:00Z,26.4040,-90.7920,3.0,6.1,83.0,7.5, 
ADCP,ioos:station:wmo:42395:2,2016-11-04T11:00:00Z,26.4040,-90.7920,3.0,5.9,72.0,7.2, 
ADCP,ioos:station:wmo:42395:2,2016-11-04T11:20:00Z,26.4040,-90.7920,3.0,5.7,75.0,7.6, 
ADCP,ioos:station:wmo:42395:2,2016-11-04T11:40:00Z,26.4040,-90.7920,3.0,5.6,73.0,7.2, 
ADCP,ioos:station:wmo:42395:2,2016-11-04T12:00:00Z,26.4040,-90.7920,3.0,5.2,60.0,7.0, 
ADCP,ioos:station:wmo:42395:2,2016-11-04T12:20:00Z,26.4040,-90.7920,3.0,5.2,60.0,7.1, 
ADCP,ioos:station:wmo:42395:2,2016-11-04T12:40:00Z,26.4040,-90.7920,3.0,5.0,59.0,7.1, 
ADCP,ioos:station:wmo:42395:2,2016-11-04T13:00:00Z,26.4040,-90.7920,3.0,5.1,54.0,7.2, 
ADCP,ioos:station:wmo:42395:2,2016-11-04T13:20:00Z,26.4040,-90.7920,3.0,5.5,53.0,7.4, 
ADCP,ioos:station:wmo:42395:2,2016-11-04T13:40:00Z,26.4040,-90.7920,3.0,5.2,58.0,6.7, 
ADCP,ioos:station:wmo:42395:2,2016-11-04T14:00:00Z,26.4040,-90.7920,3.0,5.5,56.0,7.3, 
ADCP,ioos:station:wmo:42395:2,2016-11-04T14:20:00Z,26.4040,-90.7920,3.0,5.5,61.0,6.7, 
ADCP,ioos:station:wmo:42395:2,2016-11-04T14:40:00Z,26.4040,-90.7920,3.0,5.2,65.0,6.5, 
ADCP,ioos:station:wmo:42395:2,2016-11-04T15:00:00Z,26.4040,-90.7920,3.0,5.1,69.0,6.5, 
ADCP,ioos:station:wmo:42395:2,2016-11-04T15:20:00Z,26.4040,-90.7920,3.0,5.1,60.0,6.5, 
ADCP,ioos:station:wmo:42395:2,2016-11-04T15:40:00Z,26.4040,-90.7920,3.0,5.3,70.0,6.9, 
ADCP,ioos:station:wmo:42395:2,2016-11-04T16:00:00Z,26.4040,-90.7920,3.0,5.5,65.0,7.3, 
ADCP,ioos:station:wmo:42395:2,2016-11-04T16:20:00Z,26.4040,-90.7920,3.0,5.2,63.0,6.5, 
ADCP,ioos:station:wmo:42395:2,2016-11-04T16:40:00Z,26.4040,-90.7920,3.0,5.5,60.0,7.0, 
ADCP,ioos:station:wmo:42395:2,2016-11-04T17:00:00Z,26.4040,-90.7920,3.0,5.6,58.0,7.7, 
ADCP,ioos:station:wmo:42395:2,2016-11-04T17:20:00Z,26.4040,-90.7920,3.0,5.4,57.0,7.2, 
ADCP,ioos:station:wmo:42395:2,2016-11-04T17:40:00Z,26.4040,-90.7920,3.0,5.4,54.0,7.1, 
ADCP,ioos:station:wmo:42395:2,2016-11-04T18:00:00Z,26.4040,-90.7920,3.0,5.5,51.0,7.2, 
ADCP,ioos:station:wmo:42395:2,2016-11-04T18:20:00Z,26.4040,-90.7920,3.0,5.7,41.0,7.5, 
ADCP,ioos:station:wmo:42395:2,2016-11-04T18:40:00Z,26.4040,-90.7920,3.0,5.4,37.0,7.5, 
ADCP,ioos:station:wmo:42395:2,2016-11-04T19:00:00Z,26.4040,-90.7920,3.0,5.4,42.0,6.9, 
ADCP,ioos:station:wmo:42395:2,2016-11-04T19:20:00Z,26.4040,-90.7920,3.0,5.7,46.0,7.9, 